sat.trackr.live / text

‹ back to catalog

ION SCV-008

NORAD 55051 · 2023-001AU

PAYLOAD ACTIVE UNKNOWN

§ Identity

Operator
Country
IT
Launch date
2023-01-03
Launch site
AFETR
Launch vehicle
Mass (kg)
RCS (m²)

External: N2YO · Heavens-Above · Gunter

§ Orbital elements

Epoch: 2026-09-21T19:52:00.326784Z

Period
94.14 min
Inclination
97.5714°
Eccentricity
0.0015221
Mean motion
15.29589434 rev/d
Perigee alt
466.6 km
Apogee alt
487.5 km
Semi-major
6,855.2 km
B*
1.5461e-4
RAAN
2.8343°
Arg perigee
36.5972°
Mean anomaly
323.6304°
Rev number
20,610

§ Raw data

ION SCV-0081 55051U 23001AU  26264.82778156  .00004368  00000+0  15461-3 0  99962 55051  97.5714   2.8343 0015221  36.5972 323.6304 15.29589434206104

JSON: /api/v1/satellites/55051 · /tle

For live sub-satellite position, see the globe view (requires WebGL).

§ Visibility from observer

Set your observer location to see the next 7 days of passes ≥ 10°. The values pass through the URL so the page stays shareable.

No JS? Fill the form by hand. The geolocation button needs JavaScript.

§ Radio — SatNOGS DB

ModeDescriptionDownlinkUplink
FSK AX.100 Mode 5 Mode U - FSK1k2 AX.100 401.415 MHz
BPSK S-Band Transmitter 2.260 GHz

2 transmitters · refreshed weekly from db.satnogs.org